Location: ?
(35.4996°N, 139.3166°E)
Time: 11:06:37
(UTC+00:00)

Cosmos 2219 Rocket - Visible Passes

Search period start: 19 May 2025 00:00
Search period end: 29 May 2025 00:00
Orbit: 826 x 846 km, 71.0° (Epoch: 18 May)

Date Brightness Start Highest point End Pass type
(mag) Time Alt. Az. Time Alt. Az. Time Alt. Az.
19 May 4.6 14:00:57 10° NNE 14:03:08 12° NE 14:04:21 11° ENE visible
19 May 3.0 15:42:12 10° NNW 15:46:01 45° NNW 15:46:01 45° NNW visible
20 May 4.7 13:44:44 10° NE 13:46:19 11° NE 13:47:36 10° ENE visible
20 May 3.0 15:25:27 10° NNW 15:29:16 45° NNW 15:29:16 45° NNW visible
21 May 4.7 13:29:11 10° NE 13:29:29 10° NE 13:29:46 10° NE visible
21 May 3.1 15:08:43 10° NNW 15:12:33 45° N 15:12:33 45° N visible
22 May 3.1 14:51:58 10° NNW 14:55:53 45° N 14:55:53 45° N visible
23 May 3.1 14:35:15 10° NNW 14:39:16 45° N 14:39:16 45° N visible
24 May 3.1 14:18:33 10° NNW 14:22:41 45° NNE 14:22:41 45° NNE visible
24 May 4.6 16:04:13 10° WNW 16:04:21 10° WNW 16:04:21 10° WNW visible
25 May 3.0 14:01:50 10° NNW 14:06:07 45° NNE 14:06:07 45° NNE visible
25 May 4.5 15:47:11 10° WNW 15:47:48 12° WNW 15:47:48 12° WNW visible
26 May 3.0 13:45:08 10° N 13:49:36 44° NE 13:49:36 44° NE visible
26 May 4.4 15:30:12 10° WNW 15:31:17 14° WNW 15:31:17 14° WNW visible
27 May 3.0 13:28:27 10° N 13:33:07 42° NE 13:33:07 42° NE visible
27 May 4.3 15:13:15 10° NW 15:14:48 16° WNW 15:14:48 16° WNW visible
28 May 3.0 13:11:45 10° N 13:16:39 40° NE 13:16:39 40° NE visible
28 May 4.2 14:56:20 10° NW 14:58:20 18° WNW 14:58:20 18° WNW visible
